#timestamp,LO_Frequency,Hit,StdDev 
1529827215.3,286047002.3,N
1529827235.2,286047002.3,N
1529827255.0,286047000.2,N
1529827255.9,286047000.2,N
1529827275.8,286046999.7,N
1529827295.6,286047001.9,N
1529827315.4,286047003.9,N
1529827335.3,286047006.0,Y
1529827355.1,286047003.9,P
1529827375.9,286047003.2,N
1529827395.7,286047001.5,N
1529827415.5,286047002.5,N
1529827435.4,286047004.2,Y
1529827455.2,286047000.0,P
1529827475.0,286047000.4,N
1529827475.9,286047000.4,N
1529827495.8,286047000.1,N
1529827515.6,286047000.2,N
1529827535.5,286047000.2,N
1529827555.3,286047000.3,N
1529827575.1,286047001.1,N
1529827595.9,286046999.9,N
1529827615.7,286047000.4,N
1529827635.5,286047000.2,N
1529827655.4,286047000.1,N
1529827675.2,286047000.5,N
1529827695.1,286047000.2,N
1529827696.0,286047000.2,N
1529827715.1,286046999.7,N
1529827735.8,286047002.3,Y
1529827755.7,286046999.7,P
1529827775.5,286047000.4,N
1529827795.3,286047000.5,N
1529827815.1,286047001.0,Y
1529827835.9,286047000.4,P
1529827855.7,286047000.5,P
1529827875.5,286047000.4,P
1529827895.4,286047000.0,N
1529827915.2,286047000.5,N
1529827935.1,286047000.3,N
1529827936.0,286047000.3,N
1529827955.8,286047000.4,N
1529827975.6,286046998.7,Y
1529827995.1,286046999.0,P
1529827996.0,286046999.0,N
1529828015.8,286046998.8,N
1529828035.7,286046997.2,Y
1529828055.5,286046999.5,P
1529828075.3,286046998.9,P
1529828095.2,286046998.9,P
1529828115.0,286046998.5,Y
1529828115.9,286046998.5,P
1529828135.7,286047002.5,P
1529828155.6,286047001.9,N
1529828175.4,286047003.2,N
1529828195.3,286047001.3,N
1529828215.1,286047003.1,N
1529828235.9,286047003.5,N
1529828255.7,286047001.6,N
1529828275.5,286047001.6,N
1529828295.4,286047001.7,N
1529828315.2,286047002.0,N
1529828335.0,286047002.5,N
1529828335.9,286047002.5,N
1529828355.8,286047004.0,N
1529828375.6,286047004.3,N
1529828395.5,286047004.3,N
1529828415.3,286047004.0,N
1529828435.1,286047001.7,N
1529828455.9,286047004.4,N
1529828475.7,286047002.1,N
1529828495.6,286047001.7,N
1529828515.4,286047003.3,N
1529828535.2,286047005.9,Y
1529828555.1,286047003.7,P
1529828556.0,286047003.7,P
1529828575.8,286047003.2,P
1529828595.6,286047004.2,Y
1529828615.5,286046998.1,P
1529828635.3,286046999.1,N
1529828655.2,286046998.9,N
1529828675.9,286046998.6,N
1529828695.7,286046998.7,N
1529828715.6,286046998.5,N
1529828735.4,286047001.1,N
1529828755.2,286046997.1,N
1529828775.1,286046998.4,N
1529828776.0,286046998.4,N
1529828795.8,286047000.2,N
1529828815.7,286047002.3,N
1529828835.5,286047000.0,N
1529828855.3,286046998.3,N
1529828875.2,286046999.2,N
1529828895.0,286046996.7,N
1529828895.9,286046996.7,N
1529828915.8,286046999.4,N
1529828935.6,286046998.1,N
1529828955.4,286047000.7,N
1529828975.3,286047000.3,N
1529828995.1,286046998.6,N
1529829015.8,286046998.4,N
1529829035.7,286047001.2,N
1529829055.5,286047000.2,N
1529829075.4,286047002.5,N
1529829095.2,286047002.3,N
1529829115.0,286046999.9,N
1529829115.9,286046999.9,N
1529829135.8,286047002.4,N
1529829155.6,286046998.2,N
1529829175.5,286047000.2,N
1529829195.3,286046998.8,N
1529829215.1,286046999.2,N
1529829235.9,286046996.5,N
1529829255.7,286046999.0,N
1529829275.5,286047000.4,N
1529829295.4,286047000.4,N
1529829315.2,286046998.4,N
1529829335.0,286046998.3,N
1529829336.0,286046998.3,N
1529829355.8,286046998.4,N
1529829375.6,286046998.2,N
1529829395.3,286046998.7,N
1529829415.2,286046999.2,N
1529829435.9,286047000.8,N
1529829455.5,286046997.1,N
1529829475.3,286046998.3,N
1529829495.2,286046998.3,N
1529829515.0,286046998.9,N
1529829515.9,286046998.9,N
1529829535.7,286046999.2,N
1529829555.6,286046996.6,N
1529829575.4,286046997.0,N
1529829595.3,286046999.5,N
1529829615.1,286046999.2,N
1529829616.0,286046999.2,N
1529829635.8,286046999.4,N
1529829655.7,286046998.6,N
1529829675.5,286046998.4,N
1529829695.3,286046998.1,N
1529829715.2,286047000.9,N
1529829735.0,286047000.5,N
1529829735.9,286047000.5,N
1529829755.8,286046999.4,N
1529829775.6,286047001.2,N
1529829795.4,286046998.4,N
1529829815.3,286047001.2,N
1529829835.1,286047000.9,N
1529829855.9,286047001.2,N
1529829875.7,286047000.9,N
1529829895.5,286047000.7,N
1529829915.4,286047000.8,N
1529829935.2,286047001.2,N
1529829955.0,286046998.2,N
1529829955.9,286046998.2,N
1529829975.8,286047001.0,N
1529829995.6,286047002.4,N
1529830015.5,286047002.3,N
1529830035.3,286047000.1,N
1529830055.1,286047001.0,N
1529830075.9,286047000.9,N
1529830095.7,286047000.2,N
1529830115.5,286047000.3,N
1529830135.4,286046998.9,N
1529830155.2,286046998.8,N
1529830175.1,286046999.0,N
1529830176.0,286046999.0,N
1529830195.8,286046999.0,N
1529830215.6,286046998.8,N
1529830235.5,286046997.0,N
1529830255.3,286046999.6,N
1529830275.1,286046999.4,N
1529830295.9,286047000.3,N
1529830315.7,286046998.7,N
1529830335.6,286047000.4,N
1529830355.4,286046998.1,N
1529830375.2,286047000.5,N
1529830395.1,286046998.7,N
1529830396.0,286046998.7,N
1529830415.8,286046999.0,N
1529830435.6,286046997.4,N
1529830455.5,286046996.6,N
1529830475.3,286046998.6,N
1529830495.2,286046998.2,N
1529830515.9,286047000.9,N
1529830535.7,286047000.6,N
1529830555.6,286047000.2,N
1529830575.4,286047001.2,N
1529830595.2,286047001.1,N
1529830615.1,286046998.5,N
1529830616.0,286046998.5,N
1529830635.8,286047001.1,N
1529830655.7,286046999.0,N
1529830675.5,286047000.3,N
1529830695.3,286046998.6,N
1529830715.7,286047000.8,N
1529830735.6,286047000.0,N
1529830755.4,286046998.2,N
1529830775.3,286046998.6,N
1529830795.1,286046998.9,N
1529830796.0,286046998.9,N
